User: anonymous   Login
Location: Edinburgh
(55.9500°N, 3.1600°W)
Time: 00:29:39
(UTC+01:00)
Language:

First-Move - Orbit

View from above orbital plane
View from above orbital plane
View from above satellite
View from above satellite

Ground track
Ground track

The orbit data is extracted from the following two-line orbital elements,

1 39439U 13066Z   19286.51315752  .00000440  00000-0  59930-4 0  9997
2 39439  97.5708 293.5358 0065692  12.6428 347.6414 14.81917916318246
Epoch (UTC): 13 October 2019 12:18:56
Eccentricity: 0.0065692
inclination: 97.5708°
perigee height: 577 km
apogee height: 669 km
right ascension of ascending node: 293.5358°
argument of perigee: 12.6428°
revolutions per day: 14.81917916
mean anomaly at epoch: 347.6414°
orbit number at epoch: 31824

The dashed part of the orbit path shows where the satellite is in the earth's shadow,  

DLR